Location: Newark
(0.5300°S, 127.4800°E)
Time: 22:47:10
(UTC+00:00)

A-11 Canister half - Pass Details

Date: 18 September 2019
Orbit: 1514 x 1686 km, 47.2° (Epoch: 16 October)

Event Time Altitude Azimuth Distance (km) Brightness Sun altitude
Rises 12:30:42 0° 295° (WNW) 4,783 12.2 -46.6°
Reaches altitude 10° 12:34:18 10° 285° (WNW) 3,826 11.6 -47.5°
Maximum altitude 12:42:26 30° 228° (SW) 2,646 10.3 -49.5°
Enters shadow 12:42:52 30° 223° (SW) 2,653 10.3 -49.6°
Drops below altitude 10° 12:50:49 10° 171° (S) 3,931 - -51.6°
Sets 12:54:38 0° 160° (SSE) 4,933 - -52.6°
